Location: Hilton Head Island
(32.2163°N, 80.7526°W)
Time: 02:57:44
(UTC-04:00)

Transit 2A Rocket - Pass Details

Date: 07 February 2026
Orbit: 583 x 900 km, 66.7° (Epoch: 11 March)

Event Time Altitude Azimuth Distance (km) Brightness Sun altitude
Rises 18:28:39 0° 208° (SSW) 3,392 9.0 -6.2°
Reaches altitude 10° 18:31:04 10° 210° (SSW) 2,493 8.3 -6.7°
Maximum altitude 18:36:55 77° 296° (WNW) 915 5.5 -7.9°
Drops below altitude 10° 18:42:58 10° 23° (NNE) 2,577 7.4 -9.2°
Sets 18:45:30 0° 24° (NNE) 3,515 8.1 -9.7°
